Location: Hamilton
(43.2500°N, 79.8330°W)
Time: 08:53:14
(UTC-05:00)

Amateur Radio Satellites - All Passes

Search period start: 18 January 2018 08:23
Search period end: 19 January 2018 08:23
Location: Hamilton, 43.2500°N, 79.8330°W

Satellite Date Start Highest point End Downlink Frequencies (MHz)
Time Altitude Azimuth
SO-50 18 Jan 08:31:42 08:34:07 14° 326° (NW) 08:36:36 436.795
FO-29 18 Jan 08:41:32 08:47:46 33° 263° (W) 08:53:26 435.910
Oscar 11 18 Jan 08:42:13 08:46:32 63° 101° (E) 08:50:48 .
TIGRISAT 18 Jan 08:43:56 08:48:01 39° 70° (ENE) 08:52:13 435.000
XW-2A 18 Jan 08:48:45 08:51:51 35° 288° (WNW) 08:54:55 145.665 - 145.685
CUBEBUG 2 18 Jan 08:50:45 08:54:17 21° 295° (WNW) 08:57:48 437.445
AAUSAT CUBESAT 2 18 Jan 08:55:45 08:59:27 33° 290° (WNW) 09:03:07 437.432
UNISAT 6 18 Jan 08:58:04 09:02:23 61° 74° (ENE) 09:06:51 437.425
UWE-3 18 Jan 09:02:27 09:06:19 26° 293° (WNW) 09:10:08 435.000/436.395/437.385
SEEDS 18 Jan 09:05:57 09:07:53 13° 297° (WNW) 09:09:48 437.485
PCSat 18 Jan 09:23:40 09:26:36 15° 104° (ESE) 09:29:33 145.827
O/OREOS (USA 219) 18 Jan 09:24:45 09:26:17 11° 48° (NE) 09:27:50 437.305
YUBILEINY 18 Jan 09:29:48 09:37:25 32° 68° (ENE) 09:44:55 435.215
ZACube-1 18 Jan 09:33:25 09:37:00 23° 294° (WNW) 09:40:33 437.345
RS-15 18 Jan 09:34:32 09:46:55 83° 305° (NW) 09:59:09 29.354- 29.394
HO-68 18 Jan 09:38:46 09:43:04 17° 308° (NW) 09:47:22 435.675
AO-73 18 Jan 09:42:16 09:45:42 21° 295° (WNW) 09:49:06 145.935
Max Valier Satellite 18 Jan 09:44:59 09:48:28 37° 98° (E) 09:51:54 145.860
FALCONSAT 3 18 Jan 09:48:21 09:50:14 14° 199° (SSW) 09:52:07 435.103
BEESAT 3 18 Jan 09:51:31 09:54:35 22° 113° (ESE) 09:57:41 437.485
DELFI C3 18 Jan 10:01:15 10:05:11 88° 279° (W) 10:09:06 145.870
POLYITAN 1 18 Jan 10:01:49 10:02:17 10° 60° (ENE) 10:02:47 437.675
PRISM 18 Jan 10:07:11 10:11:15 80° 75° (ENE) 10:15:19 437.425
EO-88 18 Jan 10:11:05 10:14:38 50° 99° (E) 10:18:09 145.990 - 145.960
NANOSAT C BR1 18 Jan 10:18:35 10:20:44 14° 62° (ENE) 10:22:53 145.865
Oscar 11 18 Jan 10:19:59 10:22:08 14° 298° (WNW) 10:24:16 .
TIGRISAT 18 Jan 10:21:34 10:24:51 20° 268° (W) 10:28:13 435.000
QB50P2 18 Jan 10:28:08 10:31:22 22° 66° (ENE) 10:34:37 145.880/145.840
BEESAT 2 18 Jan 10:32:39 10:35:06 16° 111° (ESE) 10:37:35 435.950
AIST 2D 18 Jan 10:36:27 10:39:58 73° 76° (ENE) 10:43:30 435.315
UNISAT 6 18 Jan 10:37:24 10:39:32 13° 271° (W) 10:41:42 437.425
EO-79 18 Jan 10:59:19 11:03:15 40° 71° (ENE) 11:07:14 145.935-145.965
O/OREOS (USA 219) 18 Jan 11:01:55 11:06:25 87° 67° (ENE) 11:10:53 437.305
DUCHIFAT 1 18 Jan 11:02:11 11:05:56 33° 69° (ENE) 11:09:44 145.980
PCSat 18 Jan 11:03:52 11:09:17 79° 301° (WNW) 11:14:44 145.827
Max Valier Satellite 18 Jan 11:19:40 11:21:58 16° 294° (WNW) 11:24:15 145.860
YUBILEINY 18 Jan 11:26:12 11:34:44 60° 269° (W) 11:43:11 435.215
BEESAT 3 18 Jan 11:28:11 11:31:54 37° 310° (NW) 11:35:39 437.485
POLYITAN 1 18 Jan 11:33:08 11:37:22 85° 257° (WSW) 11:41:39 437.675
Gurwin Techsat 1B 18 Jan 11:34:25 11:36:28 12° 56° (NE) 11:38:31 435.225
LO-87 18 Jan 11:39:56 11:43:35 80° 102° (ESE) 11:47:12 145.935 - 145.965
EO-88 18 Jan 11:46:26 11:47:49 12° 296° (WNW) 11:49:11 145.990 - 145.960
RS-15 18 Jan 11:50:35 12:01:28 35° 332° (NNW) 12:12:06 29.354- 29.394
NANOSAT C BR1 18 Jan 11:51:47 11:55:55 60° 259° (W) 12:00:08 145.865
AO-85 18 Jan 11:56:30 11:59:01 16° 110° (ESE) 12:01:38 145.980
QB50P2 18 Jan 12:03:03 12:06:55 35° 263° (W) 12:10:51 145.880/145.840
ESTCUBE 1 18 Jan 12:04:33 12:09:04 81° 284° (WNW) 12:13:31 437.505/2401.250
BEESAT 2 18 Jan 12:08:29 12:12:24 51° 308° (NW) 12:16:23 435.950
Oscar 19 18 Jan 12:09:17 12:13:48 31° 66° (ENE) 12:18:20 437.125/150
BUGSAT 1 18 Jan 12:15:06 12:18:59 47° 72° (ENE) 12:22:58 437.445
VELOX 1 18 Jan 12:18:06 12:21:11 18° 93° (E) 12:24:16 145.980
EO-79 18 Jan 12:36:16 12:39:10 18° 267° (W) 12:42:07 145.935-145.965
AO-91 18 Jan 12:36:21 12:39:33 42° 73° (ENE) 12:42:49 145.960
SPROUT 18 Jan 12:37:10 12:41:24 54° 100° (E) 12:45:36 437.525
DUCHIFAT 1 18 Jan 12:38:21 12:41:38 22° 266° (W) 12:44:57 145.980
PCSat 18 Jan 12:50:11 12:53:34 16° 322° (NW) 12:56:58 145.827
Gurwin Techsat 1B 18 Jan 13:10:14 13:15:33 81° 76° (ENE) 13:20:54 435.225
YUBILEINY 18 Jan 13:28:32 13:29:30 10° 290° (WNW) 13:30:28 435.215
AO-85 18 Jan 13:35:04 13:38:57 48° 309° (NW) 13:43:07 145.980
AO-7 18 Jan 13:37:54 13:45:23 39° 58° (ENE) 13:52:53 .
SO-50 18 Jan 13:38:43 13:42:18 21° 40° (NE) 13:45:55 436.795
Oscar 19 18 Jan 13:48:16 13:53:01 35° 263° (W) 13:57:47 437.125/150
BUGSAT 1 18 Jan 13:52:18 13:54:37 15° 269° (W) 13:56:56 437.445
VELOX 1 18 Jan 13:53:40 13:57:49 43° 289° (WNW) 14:01:58 145.980
RS-15 18 Jan 14:09:13 14:18:51 26° 7° (N) 14:28:09 29.354- 29.394
UKube-1 18 Jan 14:13:12 14:17:11 36° 98° (E) 14:21:08 .
SPROUT 18 Jan 14:14:19 14:16:50 15° 297° (WNW) 14:19:20 437.525
50 SAT 18 Jan 14:17:46 14:20:53 71° 102° (ESE) 14:23:59 437.505
DX 1 18 Jan 14:18:39 14:22:59 70° 103° (ESE) 14:27:18 434.975-435.025
M-CUBED/EXP-1 PRIME 18 Jan 14:40:33 14:43:00 15° 59° (ENE) 14:45:22 437.505
ITAMSAT 1 18 Jan 14:47:48 14:52:46 49° 70° (ENE) 14:57:44 435.822/435.867
Gurwin Techsat 1B 18 Jan 14:53:40 14:56:07 13° 271° (W) 14:58:34 435.225
BEESAT 18 Jan 15:05:17 15:09:04 23° 94° (E) 15:12:49 436.000
CUBESAT XI-V 18 Jan 15:18:10 15:20:30 14° 89° (E) 15:22:49 437.345
SO-50 18 Jan 15:18:30 15:23:11 65° 239° (WSW) 15:27:54 436.795
MOZHAYETS 4 18 Jan 15:20:57 15:25:32 57° 100° (E) 15:30:05
AO-7 18 Jan 15:29:45 15:37:52 54° 258° (WSW) 15:46:03 .
UKube-1 18 Jan 15:49:40 15:52:58 22° 295° (WNW) 15:56:16 .
DX 1 18 Jan 15:56:42 15:58:35 13° 299° (WNW) 16:00:29 434.975-435.025
ITUPSAT 1 18 Jan 16:00:34 16:05:25 78° 104° (ESE) 16:10:14 437.325
DOVE 4 18 Jan 16:00:46 16:05:01 56° 74° (ENE) 16:09:08 437.250
CUTE-I 18 Jan 16:04:36 16:06:33 12° 56° (NE) 16:08:30 437.470
M-CUBED/EXP-1 PRIME 18 Jan 16:12:36 16:16:59 62° 253° (WSW) 16:21:07 437.505
RS-15 18 Jan 16:23:53 16:35:16 48° 40° (NE) 16:46:02 29.354- 29.394
XW-2F 18 Jan 16:27:22 16:29:16 13° 64° (ENE) 16:31:09 145.980 - 146.000
ITAMSAT 1 18 Jan 16:28:33 16:32:28 22° 267° (W) 16:36:24 435.822/435.867
KAITUO 1B 18 Jan 16:31:20 16:32:29 11° 63° (ENE) 16:33:38 145.475/437.950
XW-2D 18 Jan 16:33:49 16:36:25 18° 66° (ENE) 16:39:01 145.860 - 145.880
HO-68 18 Jan 16:34:06 16:38:42 19° 53° (NE) 16:43:19 435.675
BEESAT 18 Jan 16:42:29 16:46:58 41° 291° (WNW) 16:51:26 436.000
NUDT-PHONESAT 18 Jan 16:46:13 16:48:28 15° 65° (ENE) 16:50:43 437.300
XW-2B 18 Jan 16:50:37 16:53:48 26° 69° (ENE) 16:57:01 145.730 - 145.750
CUBESAT XI-V 18 Jan 16:53:43 16:58:17 63° 287° (WNW) 17:02:49 437.345
MOZHAYETS 4 18 Jan 16:59:19 17:02:13 17° 298° (WNW) 17:05:07
KKS-1 18 Jan 17:10:15 17:14:07 29° 96° (E) 17:17:59 437.445
LilacSat-2 18 Jan 17:14:19 17:18:05 54° 74° (ENE) 17:21:53 437.200
XW-2C 18 Jan 17:20:04 17:23:50 58° 75° (ENE) 17:27:37 145.795 - 145.815
STARS 18 Jan 17:34:23 17:37:43 21° 94° (E) 17:41:02 437.465
ITUPSAT 1 18 Jan 17:40:13 17:42:35 14° 301° (WNW) 17:44:58 437.325
CUTE-I 18 Jan 17:40:25 17:45:44 80° 74° (ENE) 17:51:03 437.470
DOVE 4 18 Jan 17:41:01 17:43:02 13° 269° (W) 17:45:01 437.250
XW-2F 18 Jan 17:59:14 18:02:56 48° 261° (W) 18:06:39 145.980 - 146.000
KAITUO 1B 18 Jan 18:02:13 18:05:56 59° 259° (W) 18:09:41 145.475/437.950
NO-84 18 Jan 18:04:52 18:07:52 55° 137° (SE) 18:10:43 435.350 FM
BEESAT 3 18 Jan 18:06:30 18:09:31 21° 43° (NE) 18:12:29 437.485
XW-2D 18 Jan 18:06:46 18:10:19 35° 263° (W) 18:13:52 145.860 - 145.880
PCSat 18 Jan 18:08:11 18:12:07 20° 41° (NE) 18:16:03 145.827
AAUSAT CUBESAT 2 18 Jan 18:12:14 18:14:53 17° 65° (ENE) 18:17:31 437.432
CUBEBUG 2 18 Jan 18:12:18 18:16:22 40° 71° (ENE) 18:20:35 437.445
HO-68 18 Jan 18:18:16 18:25:26 85° 72° (ENE) 18:32:38 435.675
NUDT-PHONESAT 18 Jan 18:18:27 18:21:58 39° 262° (W) 18:25:30 437.300
SEEDS 18 Jan 18:20:42 18:24:45 46° 73° (ENE) 18:28:48 437.485
UWE-3 18 Jan 18:23:32 18:27:24 31° 68° (ENE) 18:31:23 435.000/436.395/437.385
XW-2B 18 Jan 18:24:47 18:27:54 23° 265° (W) 18:31:02 145.730 - 145.750
CUTE 1.7 + AOD 2 18 Jan 18:27:43 18:31:59 87° 255° (WSW) 18:36:17 437.475
RS-15 18 Jan 18:36:46 18:48:10 62° 246° (WSW) 18:58:58 29.354- 29.394
KKS-1 18 Jan 18:46:47 18:50:36 28° 293° (WNW) 18:54:24 437.445
STRAND 1 18 Jan 18:47:10 18:50:43 19° 92° (E) 18:54:15 437.568
BEESAT 2 18 Jan 18:48:04 18:50:45 17° 40° (NE) 18:53:26 435.950
LilacSat-2 18 Jan 18:51:22 18:52:40 11° 270° (W) 18:53:59 437.200
ZACube-1 18 Jan 18:53:07 18:57:05 33° 69° (ENE) 19:01:09 437.345
XW-2C 18 Jan 18:57:39 18:58:22 10° 271° (W) 18:59:04 145.795 - 145.815
AO-73 18 Jan 19:01:28 19:05:31 36° 70° (ENE) 19:09:39 145.935
STARS 18 Jan 19:10:04 19:14:10 38° 290° (WNW) 19:18:16 437.465
XW-2A 18 Jan 19:19:43 19:23:08 79° 77° (ENE) 19:26:34 145.665 - 145.685
CUTE-I 18 Jan 19:23:51 19:26:23 13° 271° (W) 19:28:55 437.470
Oscar 11 18 Jan 19:37:31 19:41:45 54° 73° (ENE) 19:46:01 .
NO-84 18 Jan 19:43:04 19:45:12 18° 335° (NNW) 19:47:19 435.350 FM
BEESAT 3 18 Jan 19:43:30 19:47:14 43° 242° (WSW) 19:50:54 437.485
AAUSAT CUBESAT 2 18 Jan 19:46:00 19:49:58 45° 261° (W) 19:53:58 437.432
FO-29 18 Jan 19:49:31 19:54:01 28° 95° (E) 19:58:27 435.910
CUBEBUG 2 18 Jan 19:50:01 19:53:09 19° 268° (W) 19:56:25 437.445
PCSat 18 Jan 19:50:44 19:56:11 81° 240° (WSW) 20:01:35 145.827
SEEDS 18 Jan 19:58:05 20:00:39 16° 269° (W) 20:03:15 437.485
UWE-3 18 Jan 20:00:08 20:03:50 26° 266° (W) 20:07:39 435.000/436.395/437.385
HO-68 18 Jan 20:09:22 20:13:59 18° 271° (W) 20:18:37 435.675
AO-85 18 Jan 20:24:15 20:28:29 29° 45° (NE) 20:32:57 145.980
BEESAT 2 18 Jan 20:24:53 20:28:51 62° 240° (WSW) 20:32:45 435.950
Max Valier Satellite 18 Jan 20:24:56 20:27:43 20° 67° (ENE) 20:30:30 145.860
STRAND 1 18 Jan 20:25:12 20:30:14 56° 289° (WNW) 20:35:15 437.568
ZACube-1 18 Jan 20:29:46 20:33:23 25° 266° (W) 20:37:06 437.345
AO-73 18 Jan 20:38:18 20:41:49 23° 267° (W) 20:45:24 145.935
DELFI C3 18 Jan 20:46:51 20:50:41 56° 74° (ENE) 20:54:32 145.870
EO-88 18 Jan 20:49:33 20:52:35 25° 69° (ENE) 20:55:38 145.990 - 145.960
UNISAT 6 18 Jan 20:50:12 20:52:21 13° 89° (E) 20:54:31 437.425
RS-15 18 Jan 20:54:16 20:57:46 12° 268° (W) 21:01:14 29.354- 29.394
nSIGHT-1 18 Jan 21:10:31 21:13:16 28° 137° (SE) 21:16:02 .
ISS 18 Jan 21:13:41 21:16:13 21° 135° (SE) 21:18:48 437.550
Oscar 11 18 Jan 21:15:47 21:18:12 15° 270° (W) 21:20:38 .
ESTCUBE 1 18 Jan 21:31:14 21:32:57 12° 60° (ENE) 21:34:39 437.505/2401.250
FO-29 18 Jan 21:34:30 21:39:13 35° 293° (WNW) 21:43:52 435.910
PCSat 18 Jan 21:37:25 21:38:39 11° 259° (W) 21:39:54 145.827
Max Valier Satellite 18 Jan 21:58:04 22:01:20 29° 264° (W) 22:04:39 145.860
AO-85 18 Jan 22:04:20 22:09:07 48° 242° (WSW) 22:14:09 145.980
TIGRISAT 18 Jan 22:10:10 22:14:54 78° 103° (ESE) 22:19:36 435.000
LO-87 18 Jan 22:16:32 22:19:46 34° 71° (ENE) 22:23:02 145.935 - 145.965
EO-88 18 Jan 22:23:17 22:26:10 22° 266° (W) 22:29:03 145.990 - 145.960
DELFI C3 18 Jan 22:24:33 22:25:45 11° 270° (W) 22:26:58 145.870
UNISAT 6 18 Jan 22:24:50 22:29:31 70° 286° (WNW) 22:34:11 437.425
YUBILEINY 18 Jan 22:32:27 22:40:05 35° 84° (E) 22:47:43 435.215
nSIGHT-1 18 Jan 22:46:20 22:49:21 40° 335° (NNW) 22:52:22 .
ISS 18 Jan 22:49:18 22:52:30 52° 332° (NNW) 22:55:42 437.550
NO-84 18 Jan 23:00:14 23:01:36 13° 19° (NNE) 23:02:59 435.350 FM
ESTCUBE 1 18 Jan 23:04:33 23:09:05 80° 257° (WSW) 23:13:38 437.505/2401.250
VELOX 1 18 Jan 23:16:22 23:19:31 20° 64° (ENE) 23:22:40 145.980
POLYITAN 1 18 Jan 23:18:06 23:20:31 15° 91° (E) 23:22:55 437.675
PRISM 18 Jan 23:22:13 23:26:17 72° 286° (WNW) 23:30:20 437.425
SPROUT 18 Jan 23:31:01 23:35:04 46° 72° (ENE) 23:39:09 437.525
AIST 2D 18 Jan 23:33:01 23:36:30 77° 102° (ESE) 23:39:57 435.315
NANOSAT C BR1 18 Jan 23:35:29 23:38:38 20° 93° (E) 23:41:46 145.865
QB50P2 18 Jan 23:46:24 23:50:18 33° 97° (E) 23:54:10 145.880/145.840
TIGRISAT 18 Jan 23:48:43 23:50:56 13° 299° (WNW) 23:53:08 435.000
LO-87 18 Jan 23:51:10 23:53:16 15° 268° (W) 23:55:24 145.935 - 145.965
EO-79 19 Jan 00:17:57 00:22:14 66° 101° (E) 00:26:29 145.935-145.965
DUCHIFAT 1 19 Jan 00:19:51 00:24:02 51° 100° (E) 00:28:11 145.980
nSIGHT-1 19 Jan 00:23:48 00:26:07 18° 355° (N) 00:28:26 .
ISS 19 Jan 00:26:59 00:29:30 20° 352° (N) 00:32:01 437.550
YUBILEINY 19 Jan 00:27:53 00:36:29 55° 284° (WNW) 00:45:07 435.215
NO-84 19 Jan 00:36:23 00:39:13 64° 38° (NE) 00:42:12 435.350 FM
50 SAT 19 Jan 00:43:30 00:45:53 21° 69° (ENE) 00:48:17 437.505
VELOX 1 19 Jan 00:51:29 00:55:39 42° 261° (W) 00:59:50 145.980
POLYITAN 1 19 Jan 00:52:24 00:56:35 52° 287° (WNW) 01:00:45 437.675
UKube-1 19 Jan 01:08:21 01:12:16 35° 69° (ENE) 01:16:11 .
SPROUT 19 Jan 01:08:31 01:11:11 16° 268° (W) 01:13:52 437.525
NANOSAT C BR1 19 Jan 01:10:29 01:14:27 38° 290° (WNW) 01:18:23 145.865
DX 1 19 Jan 01:14:44 01:19:02 69° 74° (ENE) 01:23:20 434.975-435.025
O/OREOS (USA 219) 19 Jan 01:14:57 01:19:28 85° 112° (ESE) 01:23:59 437.305
QB50P2 19 Jan 01:22:29 01:25:55 23° 293° (WNW) 01:29:18 145.880/145.840
Gurwin Techsat 1B 19 Jan 01:25:47 01:30:24 29° 95° (E) 01:34:58 435.225
BUGSAT 1 19 Jan 01:30:26 01:34:41 72° 102° (ESE) 01:38:55 437.445
ITUPSAT 1 19 Jan 01:33:29 01:35:41 13° 59° (ENE) 01:37:53 437.325
EO-79 19 Jan 01:55:28 01:57:26 13° 298° (WNW) 01:59:24 145.935-145.965
DUCHIFAT 1 19 Jan 01:56:41 01:59:16 16° 297° (WNW) 02:01:50 145.980
Oscar 19 19 Jan 01:58:06 02:03:18 75° 103° (ESE) 02:08:26 437.125/150
AO-91 19 Jan 01:59:16 02:03:36 85° 283° (WNW) 02:08:26 145.960
nSIGHT-1 19 Jan 02:00:26 02:03:04 23° 15° (NNE) 02:05:41 .
ISS 19 Jan 02:04:09 02:06:47 22° 12° (NNE) 02:09:26 437.550
BEESAT 19 Jan 02:12:26 02:16:34 30° 67° (ENE) 02:20:43 436.000
NO-84 19 Jan 02:15:09 02:16:02 11° 232° (SW) 02:16:54 435.350 FM
50 SAT 19 Jan 02:15:22 02:17:32 18° 265° (W) 02:19:43 437.505
CUBESAT XI-V 19 Jan 02:22:15 02:25:15 17° 63° (ENE) 02:28:13 437.345
MOZHAYETS 4 19 Jan 02:23:22 02:27:56 61° 73° (ENE) 02:32:32
YUBILEINY 19 Jan 02:33:19 02:35:41 11° 309° (NW) 02:38:03 435.215
UKube-1 19 Jan 02:45:03 02:48:21 21° 266° (W) 02:51:40 .
DX 1 19 Jan 02:54:21 02:55:40 11° 270° (W) 02:56:59 434.975-435.025
O/OREOS (USA 219) 19 Jan 02:57:30 02:59:31 13° 311° (NW) 03:01:32 437.305
ITAMSAT 1 19 Jan 03:00:49 03:03:49 15° 90° (E) 03:06:50 435.822/435.867
Gurwin Techsat 1B 19 Jan 03:05:30 03:10:23 38° 292° (WNW) 03:15:16 435.225
BUGSAT 1 19 Jan 03:07:49 03:09:27 12° 299° (WNW) 03:11:05 437.445
ITUPSAT 1 19 Jan 03:08:03 03:12:49 81° 255° (WSW) 03:17:39 437.325
AO-7 19 Jan 03:29:53 03:37:59 50° 101° (ESE) 03:45:59 .
nSIGHT-1 19 Jan 03:36:22 03:39:33 87° 205° (SSW) 03:42:44 .
Oscar 19 19 Jan 03:38:57 03:41:58 16° 301° (WNW) 03:44:59 437.125/150
ISS 19 Jan 03:40:24 03:43:41 72° 31° (NNE) 03:46:57 437.550
BEESAT 19 Jan 03:50:04 03:54:16 31° 264° (W) 03:58:30 436.000
CUBESAT XI-V 19 Jan 03:57:30 04:02:08 58° 260° (W) 04:06:46 437.345
DOVE 4 19 Jan 03:59:16 04:01:21 13° 91° (E) 04:03:29 437.250
MOZHAYETS 4 19 Jan 04:03:00 04:05:29 14° 270° (W) 04:07:58
KKS-1 19 Jan 04:09:09 04:13:00 31° 68° (ENE) 04:16:54 437.445
STARS 19 Jan 04:31:59 04:35:18 22° 65° (ENE) 04:38:37 437.465
ITAMSAT 1 19 Jan 04:38:35 04:43:46 69° 287° (WNW) 04:48:56 435.822/435.867
nSIGHT-1 19 Jan 05:14:25 05:15:14 11° 230° (SW) 05:16:04 .
ISS 19 Jan 05:17:50 05:19:48 15° 228° (SW) 05:21:47 437.550
AO-7 19 Jan 05:22:55 05:30:34 41° 301° (WNW) 05:38:09 .
M-CUBED/EXP-1 PRIME 19 Jan 05:24:20 05:27:45 78° 110° (ESE) 05:31:00 437.505
XW-2F 19 Jan 05:31:05 05:33:15 15° 92° (E) 05:35:23 145.980 - 146.000
KAITUO 1B 19 Jan 05:33:50 05:35:13 12° 90° (E) 05:36:34 145.475/437.950
SO-50 19 Jan 05:34:00 05:37:53 30° 115° (ESE) 05:41:50 436.795
DOVE 4 19 Jan 05:35:09 05:39:22 59° 286° (WNW) 05:43:47 437.250
XW-2D 19 Jan 05:38:19 05:41:11 20° 94° (E) 05:44:00 145.860 - 145.880
KKS-1 19 Jan 05:45:50 05:49:33 26° 265° (W) 05:53:16 437.445
HO-68 19 Jan 05:47:06 05:50:47 14° 87° (E) 05:54:25 435.675
NUDT-PHONESAT 19 Jan 05:47:54 05:50:18 16° 92° (E) 05:52:40 437.300
XW-2B 19 Jan 05:55:26 05:58:48 30° 96° (E) 06:02:09 145.730 - 145.750
FALCONSAT 3 19 Jan 05:56:21 05:59:03 19° 168° (SSE) 06:01:45 435.103
CUTE-I 19 Jan 05:56:44 06:01:19 29° 95° (E) 06:05:53 437.470
FO-29 19 Jan 06:03:41 06:08:05 19° 60° (ENE) 06:12:10 435.910
STRAND 1 19 Jan 06:03:46 06:08:09 30° 66° (ENE) 06:12:33 437.568
STARS 19 Jan 06:07:21 06:11:23 37° 262° (W) 06:15:28 437.465
CUTE 1.7 + AOD 2 19 Jan 06:12:45 06:15:10 15° 91° (E) 06:17:35 437.475
LilacSat-2 19 Jan 06:20:24 06:24:11 71° 102° (ESE) 06:27:56 437.200
ITAMSAT 1 19 Jan 06:21:56 06:22:15 10° 305° (NW) 06:22:36 435.822/435.867
XW-2C 19 Jan 06:25:21 06:29:07 76° 101° (E) 06:32:51 145.795 - 145.815
RS-15 19 Jan 06:51:50 07:00:14 22° 99° (E) 07:08:32 29.354- 29.394
XW-2F 19 Jan 07:04:01 07:07:31 38° 288° (WNW) 07:10:58 145.980 - 146.000
KAITUO 1B 19 Jan 07:05:52 07:09:26 47° 287° (WNW) 07:12:59 145.475/437.950
XW-2D 19 Jan 07:12:06 07:15:21 28° 290° (WNW) 07:18:34 145.860 - 145.880
SO-50 19 Jan 07:14:11 07:18:16 34° 313° (NW) 07:22:26 436.795
AO-7 19 Jan 07:19:58 07:21:02 10° 324° (NW) 07:22:05 .
NUDT-PHONESAT 19 Jan 07:20:53 07:24:14 33° 289° (WNW) 07:27:31 437.300
AAUSAT CUBESAT 2 19 Jan 07:27:03 07:30:25 24° 94° (E) 07:33:45 437.432
XW-2B 19 Jan 07:30:03 07:32:46 19° 293° (WNW) 07:35:28 145.730 - 145.750
HO-68 19 Jan 07:32:19 07:39:31 82° 105° (ESE) 07:46:41 435.675
FALCONSAT 3 19 Jan 07:34:34 07:37:33 23° 183° (S) 07:40:32 435.103
CUTE-I 19 Jan 07:36:32 07:41:26 39° 292° (WNW) 07:46:19 437.470
CUBEBUG 2 19 Jan 07:37:43 07:42:30 82° 100° (E) 07:47:16 437.445
SEEDS 19 Jan 07:38:34 07:42:44 80° 100° (E) 07:46:54 437.485
STRAND 1 19 Jan 07:42:35 07:47:13 35° 263° (W) 07:51:53 437.568
FO-29 19 Jan 07:45:35 07:52:37 82° 257° (WSW) 07:58:48 435.910
CUTE 1.7 + AOD 2 19 Jan 07:47:12 07:51:17 48° 287° (WNW) 07:55:19 437.475
UWE-3 19 Jan 07:47:28 07:52:07 59° 100° (E) 07:56:41 435.000/436.395/437.385
UNISAT 6 19 Jan 07:50:29 07:52:32 13° 60° (ENE) 07:54:37 437.425
XW-2A 19 Jan 08:12:31 08:15:53 71° 101° (ESE) 08:19:13 145.665 - 145.685
